| time (UTC) | temp F | wind direction | speed MPH | gust MPH | rain 1hr in | rain 24hr in | rain mn in | humidity % | barometer mb |
| 20260906225159 | 146 | 151 | 3.0 | 9.0 | 0.00 | 0.00 | 0.00 | 100 | 1011.4 |
| 20260906224658 | 146 | 185 | 3.0 | 9.0 | 0.00 | 0.00 | 0.00 | 100 | 1011.4 |
| 20260906224159 | 146 | 146 | 4.0 | 9.0 | 0.00 | 0.00 | 0.00 | 100 | 1011.5 |
| 20260906223658 | 147 | 165 | 5.0 | 7.0 | 0.00 | 0.00 | 0.00 | 100 | 1011.4 |
| 20260906223157 | 147 | 154 | 4.0 | 7.0 | 0.00 | 0.00 | 0.00 | 100 | 1011.4 |
| 20260906222656 | 147 | 180 | 0.0 | 7.0 | 0.00 | 0.00 | 0.00 | 100 | 1011.4 |
| 20260906222157 | 147 | 185 | 0.0 | 9.0 | 0.00 | 0.00 | 0.00 | 100 | 1011.5 |
| 20260906221656 | 147 | 123 | 4.0 | 9.0 | 0.00 | 0.00 | 0.00 | 100 | 1011.5 |
| 20260906221154 | 146 | 170 | 3.0 | 9.0 | 0.00 | 0.00 | 0.00 | 100 | 1011.4 |
| 20260906220653 | 146 | 143 | 5.0 | 9.0 | 0.00 | 0.00 | 0.00 | 100 | 1011.5 |
| 20260906220152 | 146 | 213 | 3.0 | 8.0 | 0.00 | 0.00 | 0.00 | 100 | 1011.5 |
| 20260906215923 | 147 | 154 | 1.0 | 7.0 | 0.00 | 0.00 | 0.00 | 100 | 1011.5 |
| 20260906215152 | 147 | 219 | 1.0 | 7.0 | 0.00 | 0.00 | 0.00 | 100 | 1011.6 |
| 20260906214651 | 147 | 144 | 0.0 | 7.0 | 0.00 | 0.00 | 0.00 | 100 | 1011.6 |
| 20260906214138 | 147 | 143 | 2.0 | 7.0 | 0.00 | 0.00 | 0.00 | 100 | 1011.6 |
| 20260906213639 | 147 | 170 | 0.0 | 6.0 | 0.00 | 0.00 | 0.00 | 100 | 1011.6 |
| 20260906213131 | 147 | 182 | 2.0 | 6.0 | 0.00 | 0.00 | 0.00 | 100 | 1011.6 |
| 20260906212630 | 147 | 151 | 3.0 | 7.0 | 0.00 | 0.00 | 0.00 | 100 | 1011.7 |
| 20260906212126 | 147 | 105 | 6.0 | 7.0 | 0.00 | 0.00 | 0.00 | 100 | 1011.8 |
| 20260906211623 | 147 | 170 | 3.0 | 6.0 | 0.00 | 0.00 | 0.00 | 100 | 1011.8 |
| 20260906211120 | 147 | 123 | 2.0 | 8.0 | 0.00 | 0.00 | 0.00 | 100 | 1011.8 |
| 20260906210613 | 147 | 133 | 4.0 | 8.0 | 0.00 | 0.00 | 0.00 | 100 | 1011.8 |
| 20260906210109 | 147 | 130 | 3.0 | 9.0 | 0.00 | 0.00 | 0.00 | 100 | 1011.9 |
| 20260906205609 | 147 | 153 | 6.0 | 9.0 | 0.00 | 0.00 | 0.00 | 100 | 1011.9 |
| 20260906205111 | 148 | 160 | 0.0 | 6.0 | 0.00 | 0.00 | 0.00 | 100 | 1011.8 |
| 20260906204557 | 148 | 160 | 4.0 | 8.0 | 0.00 | 0.00 | 0.00 | 100 | 1011.9 |
| 20260906204328 | 148 | 140 | 3.0 | 8.0 | 0.00 | 0.00 | 0.00 | 100 | 1012.0 |
| 20260906203828 | 148 | 160 | 5.0 | 7.0 | 0.00 | 0.00 | 0.00 | 100 | 1012.0 |
| 20260906203057 | 149 | 119 | 2.0 | 6.0 | 0.00 | 0.00 | 0.00 | 100 | 1012.1 |
| 20260906202554 | 149 | 132 | 3.0 | 6.0 | 0.00 | 0.00 | 0.00 | 100 | 1012.1 |
| 20260906202049 | 149 | 146 | 0.0 | 6.0 | 0.00 | 0.00 | 0.00 | 100 | 1012.1 |
| 20260906201541 | 148 | 133 | 0.0 | 5.0 | 0.00 | 0.00 | 0.00 | 100 | 1012.1 |
| 20260906201039 | 148 | 140 | 0.0 | 4.0 | 0.00 | 0.00 | 0.00 | 100 | 1012.2 |
| 20260906200539 | 148 | 154 | 0.0 | 7.0 | 0.00 | 0.00 | 0.00 | 100 | 1012.3 |
| 20260906200010 | 148 | 154 | 0.0 | 9.0 | 0.00 | 0.00 | 0.00 | 100 | 1012.4 |
| 20260906195457 | 148 | 157 | 0.0 | 7.0 | 0.00 | 0.00 | 0.00 | 100 | 1012.4 |
| 20260906194959 | 148 | 97 | 0.0 | 5.0 | 0.00 | 0.00 | 0.00 | 100 | 1012.5 |
| 20260906194458 | 148 | 215 | 0.0 | 5.0 | 0.00 | 0.00 | 0.00 | 100 | 1012.6 |
| 20260906194206 | 148 | 215 | 0.0 | 5.0 | 0.00 | 0.00 | 0.00 | 100 | 1012.6 |
| 20260906193413 | 148 | 201 | 2.0 | 6.0 | 0.00 | 0.00 | 0.00 | 100 | 1012.8 |
| 20260906192902 | 148 | 177 | 0.0 | 6.0 | 0.00 | 0.00 | 0.00 | 100 | 1012.9 |
| 20260906192357 | 148 | 208 | 0.0 | 4.0 | 0.00 | 0.00 | 0.00 | 100 | 1012.9 |
| 20260906191857 | 148 | 171 | 0.0 | 4.0 | 0.00 | 0.00 | 0.00 | 100 | 1012.9 |
| 20260906191357 | 148 | 171 | 1.0 | 6.0 | 0.00 | 0.00 | 0.00 | 100 | 1013.0 |
| 20260906190857 | 148 | 177 | 0.0 | 7.0 | 0.00 | 0.00 | 0.00 | 100 | 1013.0 |
| 20260906190357 | 148 | 151 | 0.0 | 7.0 | 0.00 | 0.00 | 0.00 | 100 | 1013.1 |
| 20260906185858 | 149 | 147 | 2.0 | 6.0 | 0.00 | 0.00 | 0.00 | 100 | 1013.2 |
| 20260906185357 | 149 | 42 | 2.0 | 6.0 | 0.00 | 0.00 | 0.00 | 100 | 1013.3 |
| 20260906185128 | 148 | 251 | 0.0 | 6.0 | 0.00 | 0.00 | 0.00 | 100 | 1013.3 |
| 20260906184357 | 147 | 149 | 1.0 | 6.0 | 0.00 | 0.00 | 0.00 | 100 | 1013.3 |
| 20260906183856 | 148 | 132 | 0.0 | 6.0 | 0.00 | 0.00 | 0.00 | 100 | 1013.4 |
| 20260906183355 | 148 | 122 | 0.0 | 6.0 | 0.00 | 0.00 | 0.00 | 100 | 1013.4 |
| 20260906182840 | 147 | 106 | 3.0 | 7.0 | 0.00 | 0.00 | 0.00 | 100 | 1013.6 |
| 20260906182333 | 147 | 177 | 3.0 | 6.0 | 0.00 | 0.00 | 0.00 | 100 | 1013.5 |
| 20260906181832 | 147 | 125 | 0.0 | 5.0 | 0.00 | 0.00 | 0.00 | 100 | 1013.8 |
| 20260906181328 | 147 | 125 | 1.0 | 5.0 | 0.00 | 0.00 | 0.00 | 100 | 1013.9 |
| 20260906180812 | 147 | 57 | 0.0 | 5.0 | 0.00 | 0.00 | 0.00 | 100 | 1013.9 |
| 20260906180243 | 147 | 57 | 2.0 | 5.0 | 0.00 | 0.00 | 0.00 | 100 | 1014.0 |
| 20260906175946 | 147 | 2 | 0.0 | 4.0 | 0.00 | 0.00 | 0.00 | 100 | 1014.1 |
| 20260906175219 | 147 | 22 | 0.0 | 3.0 | 0.00 | 0.00 | 0.00 | 100 | 1014.3 |
| 20260906175215 | 147 | 67 | 1.0 | 4.0 | 0.00 | 0.00 | 0.00 | 100 | 1014.3 |
| 20260906174440 | 146 | 22 | 0.0 | 3.0 | 0.00 | 0.00 | 0.00 | 100 | 1014.4 |
| 20260906173705 | 146 | 358 | 0.0 | 4.0 | 0.00 | 0.00 | 0.00 | 100 | 1014.5 |
| 20260906173429 | 146 | 358 | 1.0 | 4.0 | 0.00 | 0.00 | 0.00 | 100 | 1014.5 |
| 20260906172644 | 146 | 358 | 0.0 | 3.0 | 0.00 | 0.00 | 0.00 | 100 | 1014.6 |
| 20260906172135 | 146 | 108 | 0.0 | 6.0 | 0.00 | 0.00 | 0.00 | 100 | 1014.7 |
| 20260906171629 | 147 | 135 | 1.0 | 6.0 | 0.00 | 0.00 | 0.00 | 100 | 1014.8 |
| 20260906171130 | 147 | 33 | 2.0 | 4.0 | 0.00 | 0.00 | 0.00 | 100 | 1015.0 |
| 20260906170558 | 146 | 139 | 1.0 | 3.0 | 0.00 | 0.00 | 0.00 | 100 | 1015.1 |
| 20260906170047 | 145 | 151 | 0.0 | 0.0 | 0.00 | 0.00 | 0.00 | 100 | 1015.2 |
| 20260906165525 | 145 | 151 | 0.0 | 0.0 | 0.00 | 0.00 | 0.00 | 100 | 1015.2 |
| 20260906165237 | 145 | 151 | 0.0 | 0.0 | 0.00 | 0.00 | 0.00 | 100 | 1015.2 |
| 20260906164444 | 145 | 151 | 0.0 | 0.0 | 0.00 | 0.00 | 0.00 | 100 | 1015.2 |
| 20260906163914 | 145 | 151 | 0.0 | 1.0 | 0.00 | 0.00 | 0.00 | 100 | 1015.3 |
| 20260906163350 | 145 | 151 | 0.0 | 6.0 | 0.00 | 0.00 | 0.00 | 100 | 1015.3 |
| 20260906162833 | 146 | 118 | 1.0 | 6.0 | 0.00 | 0.00 | 0.00 | 100 | 1015.3 |
| 20260906162330 | 146 | 160 | 0.0 | 0.0 | 0.00 | 0.00 | 0.00 | 100 | 1015.2 |
| 20260906161830 | 146 | 160 | 0.0 | 5.0 | 0.00 | 0.00 | 0.00 | 100 | 1015.2 |
| 20260906161308 | 145 | 160 | 0.0 | 8.0 | 0.00 | 0.00 | 0.00 | 100 | 1015.2 |
| 20260906160804 | 145 | 102 | 4.0 | 8.0 | 0.00 | 0.00 | 0.00 | 100 | 1015.2 |
| 20260906160538 | 145 | 158 | 1.0 | 8.0 | 0.00 | 0.00 | 0.00 | 100 | 1015.2 |
| 20260906155757 | 145 | 191 | 5.0 | 8.0 | 0.00 | 0.00 | 0.00 | 100 | 1015.2 |
| 20260906155258 | 145 | 154 | 3.0 | 8.0 | 0.00 | 0.00 | 0.00 | 100 | 1015.0 |
| 20260906154756 | 146 | 167 | 0.0 | 7.0 | 0.00 | 0.00 | 0.00 | 100 | 1015.0 |
| 20260906154228 | 146 | 142 | 2.0 | 7.0 | 0.00 | 0.00 | 0.00 | 100 | 1015.0 |
| 20260906153729 | 146 | 125 | 0.0 | 7.0 | 0.00 | 0.00 | 0.00 | 100 | 1014.9 |
| 20260906153227 | 146 | 123 | 0.0 | 6.0 | 0.00 | 0.00 | 0.00 | 100 | 1014.9 |
| 20260906152726 | 146 | 157 | 0.0 | 5.0 | 0.00 | 0.00 | 0.00 | 100 | 1014.8 |
| 20260906152227 | 146 | 115 | 1.0 | 4.0 | 0.00 | 0.00 | 0.00 | 100 | 1014.8 |
| 20260906151723 | 146 | 85 | 1.0 | 3.0 | 0.00 | 0.00 | 0.00 | 100 | 1014.7 |
| 20260906151224 | 146 | 0 | 0.0 | 0.0 | 0.00 | 0.00 | 0.00 | 100 | 1014.7 |
| 20260906150707 | 145 | 0 | 0.0 | 3.0 | 0.00 | 0.00 | 0.00 | 100 | 1014.7 |
| 20260906150203 | 145 | 0 | 0.0 | 3.0 | 0.00 | 0.00 | 0.00 | 100 | 1014.6 |
| 20260906145932 | 145 | 111 | 0.0 | 0.0 | 0.00 | 0.00 | 0.00 | 100 | 1014.5 |
| 20260906145147 | 146 | 111 | 0.0 | 0.0 | 0.00 | 0.00 | 0.00 | 100 | 1014.4 |
| 20260906144631 | 145 | 111 | 0.0 | 0.0 | 0.00 | 0.00 | 0.00 | 100 | 1014.5 |
| 20260906144108 | 145 | 111 | 0.0 | 0.0 | 0.00 | 0.00 | 0.00 | 100 | 1014.6 |
| 20260906143548 | 145 | 111 | 0.0 | 1.0 | 0.00 | 0.00 | 0.00 | 100 | 1014.6 |
| 20260906143048 | 145 | 111 | 0.0 | 1.0 | 0.00 | 0.00 | 0.00 | 100 | 1014.6 |
| 20260906142547 | 145 | 111 | 0.0 | 3.0 | 0.00 | 0.00 | 0.00 | 100 | 1014.6 |
| 20260906142038 | 145 | 111 | 0.0 | 5.0 | 0.00 | 0.00 | 0.00 | 100 | 1014.6 |
| 20260906141531 | 144 | 150 | 1.0 | 6.0 | 0.00 | 0.00 | 0.00 | 100 | 1014.5 |
| 20260906141031 | 144 | 109 | 4.0 | 6.0 | 0.00 | 0.00 | 0.00 | 100 | 1014.5 |
| 20260906140526 | 144 | 118 | 0.0 | 5.0 | 0.00 | 0.00 | 0.00 | 100 | 1014.5 |
| 20260906140023 | 144 | 210 | 0.0 | 0.0 | 0.00 | 0.00 | 0.00 | 100 | 1014.5 |
| 20260906135729 | 144 | 210 | 0.0 | 0.0 | 0.00 | 0.00 | 0.00 | 100 | 1014.5 |
| 20260906134936 | 144 | 210 | 0.0 | 3.0 | 0.00 | 0.00 | 0.00 | 100 | 1014.4 |
| 20260906134433 | 144 | 210 | 0.0 | 3.0 | 0.00 | 0.00 | 0.00 | 100 | 1014.3 |
| 20260906133926 | 144 | 210 | 0.0 | 0.0 | 0.00 | 0.00 | 0.00 | 100 | 1014.2 |
| 20260906133420 | 144 | 210 | 0.0 | 0.0 | 0.00 | 0.00 | 0.00 | 100 | 1014.3 |
| 20260906132917 | 144 | 210 | 0.0 | 0.0 | 0.00 | 0.00 | 0.00 | 100 | 1014.3 |
| 20260906132357 | 144 | 210 | 0.0 | 0.0 | 0.00 | 0.00 | 0.00 | 100 | 1014.2 |
| 20260906131833 | 144 | 210 | 0.0 | 0.0 | 0.00 | 0.00 | 0.00 | 100 | 1014.1 |
| 20260906131331 | 144 | 210 | 0.0 | 0.0 | 0.00 | 0.00 | 0.00 | 100 | 1014.0 |
| 20260906130817 | 144 | 210 | 0.0 | 0.0 | 0.00 | 0.00 | 0.00 | 100 | 1014.0 |
| 20260906130314 | 143 | 210 | 0.0 | 0.0 | 0.00 | 0.00 | 0.00 | 100 | 1013.9 |
| 20260906125758 | 143 | 210 | 0.0 | 0.0 | 0.00 | 0.00 | 0.00 | 100 | 1013.9 |
| 20260906125258 | 143 | 210 | 0.0 | 0.0 | 0.00 | 0.00 | 0.00 | 100 | 1013.9 |
| 20260906124744 | 143 | 210 | 0.0 | 0.0 | 0.00 | 0.00 | 0.00 | 100 | 1013.8 |
| 20260906124243 | 143 | 210 | 0.0 | 0.0 | 0.00 | 0.00 | 0.00 | 100 | 1013.6 |
| 20260906123738 | 143 | 210 | 0.0 | 0.0 | 0.00 | 0.00 | 0.00 | 100 | 1013.5 |
| 20260906123217 | 143 | 210 | 0.0 | 0.0 | 0.00 | 0.00 | 0.00 | 100 | 1013.5 |
| 20260906122711 | 143 | 210 | 0.0 | 0.0 | 0.00 | 0.00 | 0.00 | 100 | 1013.4 |
| 20260906122205 | 143 | 210 | 0.0 | 0.0 | 0.00 | 0.00 | 0.00 | 100 | 1013.3 |
| 20260906121700 | 143 | 210 | 0.0 | 0.0 | 0.00 | 0.00 | 0.00 | 100 | 1013.1 |
| 20260906121423 | 143 | 210 | 0.0 | 0.0 | 0.00 | 0.00 | 0.00 | 100 | 1013.1 |
| 20260906120629 | 143 | 210 | 0.0 | 0.0 | 0.00 | 0.00 | 0.00 | 100 | 1013.0 |
| 20260906120107 | 143 | 210 | 0.0 | 0.0 | 0.00 | 0.00 | 0.00 | 100 | 1012.9 |
| 20260906115601 | 143 | 210 | 0.0 | 0.0 | 0.00 | 0.00 | 0.00 | 100 | 1012.9 |
| 20260906115059 | 143 | 210 | 0.0 | 0.0 | 0.00 | 0.00 | 0.00 | 100 | 1012.8 |
| 20260906114818 | 143 | 210 | 0.0 | 0.0 | 0.00 | 0.00 | 0.00 | 100 | 1012.6 |
| 20260906114026 | 143 | 210 | 0.0 | 0.0 | 0.00 | 0.00 | 0.00 | 100 | 1012.5 |
| 20260906113504 | 143 | 210 | 0.0 | 0.0 | 0.00 | 0.00 | 0.00 | 100 | 1012.4 |
| 20260906112958 | 144 | 210 | 0.0 | 0.0 | 0.00 | 0.00 | 0.00 | 100 | 1012.3 |
| 20260906112459 | 144 | 210 | 0.0 | 0.0 | 0.00 | 0.00 | 0.00 | 100 | 1012.2 |
| 20260906111928 | 144 | 210 | 0.0 | 0.0 | 0.00 | 0.00 | 0.00 | 100 | 1012.1 |
| 20260906111400 | 144 | 210 | 0.0 | 0.0 | 0.00 | 0.00 | 0.00 | 100 | 1012.1 |
| 20260906110842 | 144 | 210 | 0.0 | 0.0 | 0.00 | 0.00 | 0.00 | 100 | 1012.1 |
| 20260906110341 | 144 | 210 | 0.0 | 0.0 | 0.00 | 0.00 | 0.00 | 100 | 1012.0 |
| 20260906110337 | 144 | 210 | 0.0 | 0.0 | 0.00 | 0.00 | 0.00 | 100 | 1012.1 |
| 20260906105324 | 144 | 210 | 0.0 | 0.0 | 0.00 | 0.00 | 0.00 | 100 | 1012.1 |
| 20260906104817 | 144 | 210 | 0.0 | 0.0 | 0.00 | 0.00 | 0.00 | 100 | 1012.1 |
| 20260906104316 | 144 | 210 | 0.0 | 0.0 | 0.00 | 0.00 | 0.00 | 100 | 1012.2 |
| 20260906103804 | 144 | 210 | 0.0 | 0.0 | 0.00 | 0.00 | 0.00 | 100 | 1012.2 |
| 20260906103257 | 144 | 210 | 0.0 | 0.0 | 0.00 | 0.00 | 0.00 | 100 | 1012.2 |
| 20260906102748 | 144 | 210 | 0.0 | 0.0 | 0.00 | 0.00 | 0.00 | 100 | 1012.1 |
| 20260906102244 | 144 | 210 | 0.0 | 0.0 | 0.00 | 0.00 | 0.00 | 100 | 1012.1 |
| 20260906101737 | 144 | 210 | 0.0 | 0.0 | 0.00 | 0.00 | 0.00 | 100 | 1012.0 |
| 20260906101504 | 144 | 210 | 0.0 | 0.0 | 0.00 | 0.00 | 0.00 | 100 | 1011.9 |
| 20260906100955 | 144 | 210 | 0.0 | 0.0 | 0.00 | 0.00 | 0.00 | 100 | 1011.9 |
| 20260906100218 | 144 | 210 | 0.0 | 0.0 | 0.00 | 0.00 | 0.00 | 100 | 1011.8 |
| 20260906095717 | 144 | 210 | 0.0 | 0.0 | 0.00 | 0.00 | 0.00 | 100 | 1012.0 |
| 20260906095215 | 144 | 210 | 0.0 | 4.0 | 0.00 | 0.00 | 0.00 | 100 | 1012.1 |
| 20260906094942 | 144 | 210 | 0.0 | 4.0 | 0.00 | 0.00 | 0.00 | 100 | 1012.1 |
| 20260906094211 | 144 | 135 | 0.0 | 0.0 | 0.00 | 0.00 | 0.00 | 100 | 1012.2 |
| 20260906093659 | 144 | 135 | 0.0 | 0.0 | 0.00 | 0.00 | 0.00 | 100 | 1012.2 |
| 20260906093155 | 144 | 135 | 0.0 | 0.0 | 0.00 | 0.00 | 0.00 | 100 | 1012.2 |
| 20260906092643 | 144 | 135 | 0.0 | 3.0 | 0.00 | 0.00 | 0.00 | 100 | 1012.1 |
| 20260906092139 | 144 | 135 | 0.0 | 4.0 | 0.00 | 0.00 | 0.00 | 100 | 1012.0 |
| 20260906091636 | 144 | 205 | 1.0 | 4.0 | 0.00 | 0.00 | 0.00 | 100 | 1012.1 |
| 20260906091134 | 144 | 174 | 0.0 | 4.0 | 0.00 | 0.00 | 0.00 | 100 | 1012.1 |
| 20260906090903 | 144 | 174 | 0.0 | 4.0 | 0.00 | 0.00 | 0.00 | 100 | 1012.1 |
| 20260906090124 | 144 | 156 | 0.0 | 3.0 | 0.00 | 0.00 | 0.00 | 100 | 1012.0 |
| 20260906085619 | 144 | 156 | 0.0 | 4.0 | 0.00 | 0.00 | 0.00 | 100 | 1012.0 |
| 20260906085112 | 144 | 156 | 0.0 | 5.0 | 0.00 | 0.00 | 0.00 | 100 | 1012.0 |
| 20260906084607 | 144 | 217 | 0.0 | 5.0 | 0.00 | 0.00 | 0.00 | 100 | 1012.0 |
| 20260906084051 | 144 | 195 | 1.0 | 6.0 | 0.00 | 0.00 | 0.00 | 100 | 1012.1 |
| 20260906083530 | 144 | 194 | 0.0 | 9.0 | 0.00 | 0.00 | 0.00 | 100 | 1012.1 |
| 20260906083011 | 144 | 151 | 0.0 | 9.0 | 0.00 | 0.00 | 0.00 | 100 | 1012.0 |
| 20260906082459 | 144 | 147 | 0.0 | 6.0 | 0.00 | 0.00 | 0.00 | 100 | 1012.1 |
| 20260906081957 | 144 | 147 | 1.0 | 6.0 | 0.00 | 0.00 | 0.00 | 100 | 1012.1 |
| 20260906081457 | 144 | 113 | 0.0 | 7.0 | 0.00 | 0.00 | 0.00 | 100 | 1012.1 |
| 20260906080956 | 144 | 137 | 4.0 | 7.0 | 0.00 | 0.00 | 0.00 | 100 | 1012.1 |
| 20260906080457 | 144 | 157 | 0.0 | 7.0 | 0.00 | 0.00 | 0.00 | 100 | 1012.2 |
| 20260906075957 | 144 | 188 | 0.0 | 5.0 | 0.00 | 0.00 | 0.00 | 100 | 1012.3 |
| 20260906075459 | 144 | 194 | 0.0 | 5.0 | 0.00 | 0.00 | 0.00 | 100 | 1012.3 |
| 20260906074958 | 144 | 202 | 1.0 | 5.0 | 0.00 | 0.00 | 0.00 | 100 | 1012.4 |
| 20260906074443 | 144 | 196 | 0.0 | 5.0 | 0.00 | 0.00 | 0.00 | 100 | 1012.5 |
| 20260906073941 | 145 | 196 | 1.0 | 5.0 | 0.00 | 0.00 | 0.00 | 100 | 1012.5 |
| 20260906073428 | 144 | 153 | 0.0 | 6.0 | 0.00 | 0.00 | 0.00 | 100 | 1012.5 |
| 20260906072923 | 144 | 181 | 0.0 | 4.0 | 0.00 | 0.00 | 0.00 | 100 | 1012.6 |
| 20260906072413 | 145 | 237 | 0.0 | 4.0 | 0.00 | 0.00 | 0.00 | 100 | 1012.5 |
| 20260906071857 | 145 | 164 | 0.0 | 6.0 | 0.00 | 0.00 | 0.00 | 100 | 1012.6 |
| 20260906071335 | 145 | 154 | 1.0 | 6.0 | 0.00 | 0.00 | 0.00 | 100 | 1012.6 |
| 20260906070812 | 145 | 150 | 3.0 | 6.0 | 0.00 | 0.00 | 0.00 | 100 | 1012.8 |
| 20260906070311 | 145 | 189 | 0.0 | 6.0 | 0.00 | 0.00 | 0.00 | 100 | 1012.8 |
| 20260906065757 | 145 | 192 | 2.0 | 6.0 | 0.00 | 0.00 | 0.00 | 100 | 1012.9 |
| 20260906065252 | 145 | 170 | 2.0 | 5.0 | 0.00 | 0.00 | 0.00 | 100 | 1012.9 |
| 20260906064733 | 145 | 154 | 0.0 | 2.0 | 0.00 | 0.00 | 0.00 | 100 | 1012.9 |
| 20260906064504 | 145 | 154 | 0.0 | 8.0 | 0.00 | 0.00 | 0.00 | 100 | 1013.0 |
| 20260906063712 | 145 | 154 | 2.0 | 8.0 | 0.00 | 0.00 | 0.00 | 100 | 1013.1 |
| 20260906063203 | 145 | 120 | 0.0 | 6.0 | 0.00 | 0.00 | 0.00 | 100 | 1013.1 |
| 20260906062652 | 145 | 178 | 2.0 | 6.0 | 0.00 | 0.00 | 0.00 | 100 | 1013.1 |
| 20260906062145 | 145 | 94 | 0.0 | 3.0 | 0.00 | 0.00 | 0.00 | 100 | 1013.1 |
| 20260906061643 | 145 | 163 | 0.0 | 6.0 | 0.00 | 0.00 | 0.00 | 100 | 1013.1 |
| 20260906061131 | 145 | 160 | 2.0 | 6.0 | 0.00 | 0.00 | 0.00 | 100 | 1013.2 |
| 20260906060626 | 145 | 177 | 0.0 | 6.0 | 0.00 | 0.00 | 0.00 | 100 | 1013.3 |
| 20260906060110 | 145 | 151 | 4.0 | 6.0 | 0.00 | 0.00 | 0.00 | 100 | 1013.2 |
| 20260906055610 | 145 | 137 | 0.0 | 5.0 | 0.00 | 0.00 | 0.00 | 100 | 1013.2 |
| 20260906055111 | 145 | 149 | 2.0 | 5.0 | 0.00 | 0.00 | 0.00 | 100 | 1013.2 |
| 20260906054605 | 145 | 167 | 0.0 | 6.0 | 0.00 | 0.00 | 0.00 | 100 | 1013.3 |
| 20260906054313 | 145 | 167 | 0.0 | 6.0 | 0.00 | 0.00 | 0.00 | 100 | 1013.2 |
| 20260906053543 | 145 | 146 | 0.0 | 5.0 | 0.00 | 0.00 | 0.00 | 100 | 1013.0 |
| 20260906053042 | 145 | 146 | 0.0 | 5.0 | 0.00 | 0.00 | 0.00 | 100 | 1012.9 |
| 20260906052532 | 145 | 116 | 0.0 | 6.0 | 0.00 | 0.00 | 0.00 | 100 | 1012.9 |
| 20260906052030 | 145 | 153 | 0.0 | 6.0 | 0.00 | 0.00 | 0.00 | 100 | 1012.9 |
| 20260906051531 | 145 | 129 | 4.0 | 6.0 | 0.00 | 0.00 | 0.00 | 100 | 1013.0 |
| 20260906051023 | 145 | 125 | 0.0 | 4.0 | 0.00 | 0.00 | 0.00 | 100 | 1013.1 |
| 20260906050520 | 145 | 157 | 0.0 | 6.0 | 0.00 | 0.00 | 0.00 | 100 | 1013.2 |
| 20260906050015 | 145 | 144 | 3.0 | 6.0 | 0.00 | 0.00 | 0.00 | 100 | 1013.1 |
| 20260906045515 | 145 | 161 | 4.0 | 9.0 | 0.00 | 0.00 | 0.00 | 100 | 1013.2 |
| 20260906045014 | 145 | 208 | 0.0 | 10.0 | 0.00 | 0.00 | 0.00 | 100 | 1013.1 |
| 20260906044500 | 145 | 126 | 6.0 | 10.0 | 0.00 | 0.00 | 0.00 | 100 | 1013.2 |
| 20260906044231 | 145 | 170 | 4.0 | 8.0 | 0.00 | 0.00 | 0.00 | 100 | 1013.2 |
| 20260906043733 | 145 | 178 | 2.0 | 10.0 | 0.00 | 0.00 | 0.00 | 100 | 1013.2 |
| 20260906043606 | 145 | 175 | 4.0 | 10.0 | 0.00 | 0.00 | 0.00 | 100 | 1013.1 |
| 20260906042457 | 145 | 109 | 2.0 | 9.0 | 0.00 | 0.00 | 0.00 | 100 | 1013.1 |
| 20260906041957 | 145 | 123 | 1.0 | 9.0 | 0.00 | 0.00 | 0.00 | 100 | 1013.0 |
| 20260906041458 | 145 | 172 | 5.0 | 8.0 | 0.00 | 0.00 | 0.00 | 100 | 1012.9 |
| 20260906041227 | 145 | 181 | 1.0 | 6.0 | 0.00 | 0.00 | 0.00 | 100 | 1012.9 |
| 20260906040458 | 145 | 146 | 0.0 | 8.0 | 0.00 | 0.00 | 0.00 | 100 | 1012.9 |
| 20260906035948 | 145 | 98 | 4.0 | 8.0 | 0.00 | 0.00 | 0.00 | 100 | 1012.9 |
| 20260906035444 | 145 | 150 | 4.0 | 8.0 | 0.00 | 0.00 | 0.00 | 100 | 1012.8 |
| 20260906034940 | 145 | 97 | 4.0 | 10.0 | 0.00 | 0.00 | 0.00 | 100 | 1012.8 |
| 20260906034437 | 145 | 143 | 5.0 | 10.0 | 0.00 | 0.00 | 0.00 | 100 | 1012.8 |
| 20260906033936 | 145 | 161 | 4.0 | 6.0 | 0.00 | 0.00 | 0.00 | 100 | 1012.8 |
| 20260906033437 | 146 | 160 | 0.0 | 6.0 | 0.00 | 0.00 | 0.00 | 100 | 1012.9 |
| 20260906032937 | 146 | 167 | 5.0 | 10.0 | 0.00 | 0.00 | 0.00 | 100 | 1012.9 |
| 20260906032435 | 146 | 150 | 2.0 | 10.0 | 0.00 | 0.00 | 0.00 | 100 | 1012.8 |
| 20260906031936 | 146 | 115 | 2.0 | 8.0 | 0.00 | 0.00 | 0.00 | 100 | 1012.8 |
| 20260906031427 | 146 | 161 | 3.0 | 8.0 | 0.00 | 0.00 | 0.00 | 100 | 1012.5 |
| 20260906030927 | 146 | 163 | 2.0 | 7.0 | 0.00 | 0.00 | 0.00 | 100 | 1012.4 |
| 20260906030427 | 146 | 92 | 2.0 | 7.0 | 0.00 | 0.00 | 0.00 | 100 | 1012.3 |
| 20260906030151 | 146 | 143 | 3.0 | 10.0 | 0.00 | 0.00 | 0.00 | 100 | 1012.3 |
| 20260906025412 | 146 | 57 | 5.0 | 12.0 | 0.00 | 0.00 | 0.00 | 100 | 1012.3 |
| 20260906024910 | 146 | 163 | 5.0 | 12.0 | 0.00 | 0.00 | 0.00 | 100 | 1012.2 |
| 20260906024410 | 146 | 156 | 3.0 | 10.0 | 0.00 | 0.00 | 0.00 | 100 | 1012.0 |
| 20260906023909 | 146 | 170 | 3.0 | 8.0 | 0.00 | 0.00 | 0.00 | 100 | 1011.8 |
| 20260906023408 | 146 | 92 | 4.0 | 8.0 | 0.00 | 0.00 | 0.00 | 100 | 1011.7 |
| 20260906022909 | 146 | 136 | 1.0 | 9.0 | 0.00 | 0.00 | 0.00 | 100 | 1011.5 |
| 20260906022404 | 146 | 140 | 1.0 | 9.0 | 0.00 | 0.00 | 0.00 | 100 | 1011.4 |
| 20260906021905 | 146 | 142 | 5.0 | 10.0 | 0.00 | 0.00 | 0.00 | 100 | 1011.2 |
| 20260906021405 | 146 | 147 | 2.0 | 10.0 | 0.00 | 0.00 | 0.00 | 100 | 1011.1 |
| 20260906020900 | 146 | 123 | 4.0 | 9.0 | 0.00 | 0.00 | 0.00 | 100 | 1011.1 |
| 20260906020401 | 146 | 108 | 0.0 | 9.0 | 0.00 | 0.00 | 0.00 | 100 | 1011.0 |
| 20260906015857 | 146 | 151 | 0.0 | 9.0 | 0.00 | 0.00 | 0.00 | 100 | 1010.9 |
| 20260906015624 | 147 | 119 | 3.0 | 8.0 | 0.00 | 0.00 | 0.00 | 100 | 1010.9 |
| 20260906014848 | 146 | 132 | 4.0 | 8.0 | 0.00 | 0.00 | 0.00 | 100 | 1010.9 |
| 20260906014616 | 147 | 146 | 3.0 | 8.0 | 0.00 | 0.00 | 0.00 | 100 | 1010.9 |
| 20260906013846 | 147 | 163 | 2.0 | 8.0 | 0.00 | 0.00 | 0.00 | 100 | 1010.9 |
| 20260906013345 | 147 | 140 | 0.0 | 10.0 | 0.00 | 0.00 | 0.00 | 100 | 1010.9 |
| 20260906012844 | 147 | 127 | 5.0 | 11.0 | 0.00 | 0.00 | 0.00 | 100 | 1010.7 |
| 20260906012341 | 147 | 174 | 5.0 | 13.0 | 0.00 | 0.00 | 0.00 | 100 | 1010.8 |
| 20260906011842 | 147 | 144 | 2.0 | 13.0 | 0.00 | 0.00 | 0.00 | 100 | 1010.7 |
| 20260906011342 | 147 | 129 | 5.0 | 12.0 | 0.00 | 0.00 | 0.00 | 100 | 1010.7 |
| 20260906010841 | 147 | 146 | 5.0 | 13.0 | 0.00 | 0.00 | 0.00 | 100 | 1010.6 |
| 20260906010341 | 147 | 129 | 4.0 | 13.0 | 0.00 | 0.00 | 0.00 | 100 | 1010.6 |
| 20260906005841 | 147 | 106 | 3.0 | 11.0 | 0.00 | 0.00 | 0.00 | 100 | 1010.6 |
| 20260906005606 | 148 | 68 | 3.0 | 11.0 | 0.00 | 0.00 | 0.00 | 100 | 1010.5 |
| 20260906004835 | 147 | 150 | 2.0 | 8.0 | 0.00 | 0.00 | 0.00 | 100 | 1010.5 |
| 20260906004333 | 148 | 144 | 0.0 | 9.0 | 0.00 | 0.00 | 0.00 | 100 | 1010.5 |
| 20260906004055 | 148 | 157 | 4.0 | 9.0 | 0.00 | 0.00 | 0.00 | 100 | 1010.5 |
| 20260906003324 | 148 | 137 | 0.0 | 5.0 | 0.00 | 0.00 | 0.00 | 100 | 1010.5 |
| 20260906002821 | 148 | 113 | 0.0 | 4.0 | 0.00 | 0.00 | 0.00 | 100 | 1010.4 |
| 20260906002306 | 148 | 149 | 0.0 | 4.0 | 0.00 | 0.00 | 0.00 | 100 | 1010.3 |
| 20260906001800 | 148 | 154 | 0.0 | 0.0 | 0.00 | 0.00 | 0.00 | 100 | 1010.3 |
| 20260906001241 | 148 | 154 | 0.0 | 0.0 | 0.00 | 0.00 | 0.00 | 100 | 1010.3 |
| 20260906000735 | 148 | 154 | 0.0 | 2.0 | 0.00 | 0.00 | 0.00 | 100 | 1010.3 |
| 20260906000226 | 148 | 154 | 0.0 | 5.0 | 0.00 | 0.00 | 0.00 | 100 | 1010.3 |
| 20260905235723 | 148 | 154 | 2.0 | 5.0 | 0.00 | 0.00 | 0.00 | 100 | 1010.2 |
| 20260905235220 | 148 | 147 | 0.0 | 4.0 | 0.00 | 0.00 | 0.00 | 100 | 1010.2 |
| 20260905234704 | 148 | 147 | 0.0 | 4.0 | 0.00 | 0.00 | 0.00 | 100 | 1010.2 |
| 20260905234158 | 148 | 74 | 0.0 | 3.0 | 0.00 | 0.00 | 0.00 | 100 | 1010.2 |
| 20260905233648 | 148 | 40 | 0.0 | 2.0 | 0.00 | 0.00 | 0.00 | 100 | 1010.0 |
| 20260905233147 | 148 | 36 | 0.0 | 6.0 | 0.00 | 0.00 | 0.00 | 100 | 1010.0 |
| 20260905232637 | 148 | 36 | 2.0 | 6.0 | 0.00 | 0.00 | 0.00 | 100 | 1010.0 |
| 20260905232113 | 148 | 164 | 1.0 | 8.0 | 0.00 | 0.00 | 0.00 | 100 | 1010.0 |
| 20260905231613 | 149 | 140 | 1.0 | 8.0 | 0.00 | 0.00 | 0.00 | 100 | 1010.0 |
| 20260905231117 | 149 | 108 | 0.0 | 5.0 | 0.00 | 0.00 | 0.00 | 100 | 1010.0 |
| 20260905231113 | 149 | 115 | 2.0 | 7.0 | 0.00 | 0.00 | 0.00 | 100 | 1010.0 |
| 20260905230607 | 149 | 123 | 3.0 | 5.0 | 0.00 | 0.00 | 0.00 | 100 | 1010.0 |
| 20260905225604 | 149 | 143 | 0.0 | 6.0 | 0.00 | 0.00 | 0.00 | 100 | 1009.9 |